Showing default

QIANFAN-31, 61564

Orbit data source: Space-Track

QIANFAN-31, 61564 is a Chinese payload satellite in LEO that was launched on Tue, 15 Oct 2024 UTC via a CHANG ZHENG 6A launch vehicle from the Taiyaun Space Center, China (TSC). Payload-class satellites include a variety of spacecraft equipped with specific instruments for various scientific and technological missions. These include communications satellites like Starlink; space stations such as the ISS; scientific satellites like the Hubble; Earth observation satellites from companies like Planet Labs, Umbra, and HawkEye 360; GPS; miniature CubeSats for education and research; and military/defense satellites.

Loading next visibility...
Identifier
61564, 2024-185N
Orbit
LEO
Country
Flag of CNCN / PRC
Related business
Manufacturer
GESIH/SECM
Mission
Operational Commercial Communications
Bus & Motor
QIANFAN, Unknown motor
Mass
267 kg wet, ~267 kg dry
Launch date (UTC)
2024-10-15 (1 year ago)
Launch vehicle
CHANG ZHENG 6A
Launch site
Taiyaun Space Center, China (TSC)
Object type
Payload
Rocket body
Debris
Shape & HBR
Box + 1 Pan, 5.0 m
Radar Cross Section
13.200 m², Large (>1 m²)

Expand to show TLE details & history
Last TLE update: 11 hours ago

TLE from 11 hours ago
0 QIANFAN-31
1 61564U 24185N   26103.92115809 -.00000002  00000-0 -20026-4 0  9997
2 61564  88.9773  67.8371 0008566  44.1593 316.0245 13.58018701 84747
Epoch: 2026-04-13T22:06Z
TLE epoch observation values (Epoch: 2026-04-13T22:06:28.058Z)
Latitude
-0.00001°
Longitude
-105.88464°
Altitude
1,041.292 km
Speed
7.333 km/s
True Right ascension
04h 31m 20s
True Declination
0° 00' 00"
Sunlit
Object was in daylight at epoch
Visualization orbit readout
Latitude
Unknown
Longitude
Unknown
Altitude
Unknown
Speed
Unknown
Apparent Right ascension
Unknown
Apparent Declination
Unknown
Sunlit
N/A
Visualization observer readout
Local Sidereal Time
15:10:44
Azimuth
Unknown
Elevation
Unknown
Doppler factor
Unknown
Orbital elements
Apogee altitude
1,046.297 km
Perigee altitude
1,033.588 km
Semi-major axis
7,418.079 km
Eccentricity
0.00086
Inclination
88.9773°
RAAN
67.8371°
Arg. of periapsis
44.1593°
True anomaly
315.95629°
Mean anomaly
316.0245°
Eccentric anomaly
315.9904°
Mean motion
3.39708 °/min
Orbital period
105.97 mins
BSTAR
-0.000020026
Loading maneuver chart data...
Computing Atmospheric mass density...
Loading historical data...
Loading historical data...
Loading historical data...
Loading historical data...
Loading historical data...
Loading historical data...
Loading historical data...

Documentation

Showing up to 5 results
|